Starlink 3567

operational
NORAD ID: 51871 Int'l Des: 2022-022 Owner: SPXS Country: US Constellation: starlink
LEOCIRCULAR

About Starlink 3567

Description loading...

Live Position

Loading 3D Globe...

Upcoming Passes

Altitude History

Altitude vs Time

uPlot chart will show altitude changes over time

Two-Line Element Set

1 51871U 22022V 25350.35067932 -.00003029 00000-0 -17251-3 0 9995
2 51871 53.2188 23.2439 0001019 74.0536 286.0569 15.08797714210648
Epoch: Dec 16, 2025 • Age: 16 hours

Current Status

Altitude 549.4 km
Velocity 7.59 km/s
Sub-Earth Point -30.16°S, 93.33°W
Launch Date Mar 3, 2022
Age 3.7 years
Type internet

Technical Details

Classification Payload
Mass 297.00 kg
Dry Mass 275.00 kg
Total Mass 297.00 kg
Length 0.20 m
Diameter 2.80 m
Span 9.00 m
Shape Box + pan
Manufacturer SPXS
Bus Type Starlink
Phase Status In Orbit
Owner/State SPXS/US

Large Constellations

Loading constellations...